www.pogodaiklimat.ru

Погода и климат >> Архив погоды >> Казахстан >> Астана


АРХИВ ПОГОДЫ в Астане

Время (UTC), дата Ветер
(напр.,м/с)
 
Видим.   Явления Облачность Т
(С)
Тd
(С)
f
(%)
Тe
(С)
Тes
(С)
Комфортность P
(гПа)
Po
(гПа)
Тmin
(С)
Tmax
(С)
R
(мм)
S
(см)
09 20.02 ЮЗ 3 10 км позёмок {метель} 8/4 300 м
[St Ci]
-5.3 -9.5 72 -11 -9 тепло 1025.1 980.7
12 20.02 Ю 3 10 км {метель} 10/10 270 м
[St]
-4.8 -6.8 86 -10 -10 тепло 1025.6 981.2
15 20.02 Ю 5 н/о 10/10 240 м
[St]
-3.2 -4.9 88 -10 -10 тепло 1024.6 980.6 -3.0
18 20.02 Ю 5 н/о {снег} 10/10 210 м
[St]
-2.7 -4.3 89 -9 -9 тепло 1022.8 978.9 -3.0 0.0
21 20.02 ЮЗ 5 н/о слабый снег {метель} 10/10 200 м
[St]
-2.1 -3.2 92 -9 -9 тепло 1020.8 977.1
00 21.02 ЮЗ 5 н/о слабый снег {метель} 10/10 300 м
[Sc]
-2.1 -3.5 90 -9 -9 тепло 1021.0 977.3
03 21.02 ЮЗ 5
{16}
4000 м слабый снег {метель} 10/10 200 м
[Sc]
-2.3 -3.6 91 -9 -9 тепло 1021.8 978.0 33
06 21.02 ЮЗ 5 4000 м слабый снег {метель} 10/10 200 м
[Sc]
-1.7 -3.3 89 -8 -8 тепло 1022.4 978.7 -3.3 0.4
09 21.02 ЮЗ 6
{18}
4000 м слабый снег {метель} 10/10 200 м
[Sc]
-1.4 -3.0 89 -8 -8 тепло 1022.7 979.0
12 21.02 ЮЗ 6 4000 м слабый снег {метель} 10/10 300 м
[Sc]
-1.2 -3.1 87 -8 -8 тепло 1023.4 979.7
15 21.02 ЮЗ 6 н/о позёмок {снег, метель} 10/10 1230 м
[Sc]
-1.7 -4.4 82 -9 -9 тепло 1024.6 980.8 -0.9
18 21.02 Ю 5 н/о позёмок {снег, метель} 10/10 1380 м
[Sc]
-2.9 -5.7 81 -10 -10 тепло 1026.4 982.3 -0.9 0.2
21 21.02 Ю 6 н/о позёмок {метель} ясно -5.1 -7.8 81 -13 -13 тепло 1026.7 982.2
00 22.02 ЮЗ 5 н/о позёмок {метель} ясно -7.6 -10.6 79 -15 -15 тепло 1027.8 982.9
03 22.02 Ю 4 10 км 10/0
[Ci]
-7.6 -13.0 65 -14 -14 тепло 1028.7 983.7 33
06 22.02 ЮЗ 4 10 км {метель} 3/0
[Ci fib]
-4.8 -11.0 62 -11 -8 тепло 1029.6 985.1 -7.9
09 22.02 ЮЗ 3 10 км 6/0
[Ci fib]
-3.3 -8.4 68 -8 -5 тепло 1029.5 985.2
12 22.02 Ю 3 10 км 6/0
[Ci fib]
-4.7 -8.4 75 -10 -10 тепло 1030.0 985.5
15 22.02 Ю 2 н/о ясно -7.5 -11.3 74 -12 -12 тепло 1030.9 985.9 -3.1
18 22.02 Ю 1 н/о ясно -8.1 -11.3 78 -10 -10 тепло 1030.4 985.3 -3.1
21 22.02 Ю 1 н/о ясно -8.8 -11.0 84 -11 -11 тепло 1029.6 984.4
00 23.02 Ю 1 н/о ясно -9.3 -11.6 83 -12 -12 тепло 1029.0 983.7
03 23.02 Ю 2 10 км 3/0
[Ci fib]
-8.7 -11.8 78 -13 -13 тепло 1028.6 983.5 33
06 23.02 Ю 2 10 км 3/0
[Ci fib]
-4.6 -11.2 60 -8 -4 тепло 1027.7 983.3 -10.0
09 23.02 Ю 2 10 км 4/0
[Ci fib]
-1.9 -9.7 55 -5 -1 тепло 1026.3 982.4
12 23.02 Ю 1 10 км ясно -2.6 -10.2 56 -4 -4 тепло 1025.7 981.7
15 23.02 ЮЗ 1 н/о ясно -5.6 -9.8 72 -8 -8 тепло 1026.0 981.5 -0.5
18 23.02 Ю 1 н/о ясно -8.2 -11.0 80 -11 -11 тепло 1025.2 980.3 -0.5
21 23.02 Ю 1 н/о ясно -10.8 -13.7 79 -13 -13 тепло 1024.8 979.5
00 24.02 Ю 1 н/о ясно -11.7 -14.6 79 -14 -14 тепло 1024.6 979.1
03 24.02 Ю 2 10 км ясно -12.3 -15.8 75 -17 -16 по сезону 1024.1 978.5 33
06 24.02 ЮЗ 3 10 км 4/0
[Ci fib]
-6.7 -13.0 61 -12 -8 тепло 1022.1 977.6 -12.4
09 24.02 ЮЗ 3 10 км 10/0
[Cs]
-3.7 -11.2 56 -8 -6 тепло 1020.6 976.6
12 24.02 Ю 3 10 км 10/0
[Ci]
-3.3 -10.0 60 -8 -8 тепло 1019.5 975.6
15 24.02 ЮЗ 2 н/о ясно -4.5 -9.5 68 -8 -8 тепло 1019.7 975.6 -2.2
18 24.02 Ю 3 н/о ясно -6.3 -9.8 76 -12 -12 тепло 1019.4 975.1 -2.2
21 24.02 Ю 2 н/о снежные зёрна 10/10 200 м
[St]
-7.3 -8.5 91 -12 -12 тепло 1019.7 975.2
00 25.02 Ю 3 н/о снежные зёрна 10/10 100 м
[St]
-5.7 -6.6 93 -11 -11 тепло 1019.3 975.1
03 25.02 ЮЗ 2 500 м переохл. туман {снег} ?/? -3.5 -4.2 95 -8 -8 тепло 1019.6 975.7 33
06 25.02 Ю 3 10 км {снег, туман} 8/0
[Cs]
-1.2 -2.6 90 -6 -3 тепло 1019.7 976.2 -7.4 0.0
09 25.02 Ю 4 10 км 4/0
[Ci fib]
+0.5 -3.4 75 -5 -2 тепло 1019.5 976.3
12 25.02 Ю 2 10 км ясно -2.2 -4.7 83 -6 -6 тепло 1021.5 977.7
15 25.02 Ю 2 н/о 10/10 120 м
[St]
-2.4 -3.2 94 -7 -7 тепло 1022.7 978.9 +1.0
18 25.02 Ю 2 н/о снежные зёрна 10/10 100 м
[St]
-1.9 -2.5 96 -6 -6 тепло 1023.9 980.1 +1.0
21 25.02 ЮЗ 1 н/о {снег} 10/10 240 м
[St]
-2.6 -4.2 89 -5 -5 тепло 1025.1 981.1
00 26.02 ЮЗ 3 н/о {снег} 10/10 240 м
[St]
-3.7 -5.0 91 -9 -9 тепло 1026.3 982.1
03 26.02 Ю 4 10 км 10/10 240 м
[St]
-3.4 -4.9 89 -10 -10 тепло 1026.9 982.7 33
06 26.02 Ю 5 10 км 10/10 330 м
[St]
-2.0 -4.0 86 -9 -9 тепло 1027.2 983.2 -3.8 0.0
09 26.02 Ю 6 4000 м слабый снег {метель} 10/9 200 м
[Frnb As op]
-1.2 -2.8 89 -8 -8 тепло 1026.9 983.1
12 26.02 Ю 5 4000 м слабый снег {метель} 10/9 200 м
[Frnb As op]
-1.3 -2.4 92 -8 -8 тепло 1028.0 984.1
15 26.02 ЮЗ 5 н/о позёмок {снег, метель} 10/10 240 м
[Sc]
-1.8 -3.5 88 -8 -8 тепло 1027.6 983.7 -1.0
18 26.02 ЮЗ 5 н/о позёмок {снег, метель} 10/10 210 м
[Sc]
-2.5 -3.9 90 -9 -9 тепло 1027.0 983.0 -1.0 0.8
21 26.02 Ю 5 н/о позёмок {метель} 10/0
[Ac und]
-2.2 -4.4 85 -9 -9 тепло 1025.3 981.4
00 27.02 Ю 6 н/о позёмок {метель} 9/0
[Ac As]
-3.3 -6.4 79 -11 -11 тепло 1023.3 979.3
03 27.02 Ю 7 10 км позёмок {метель} 6/0
[Ac As]
-4.1 -7.5 77 -12 -12 тепло 1022.0 977.9 33

 

Местоположение метеостанции Астана (город Астана, Казахстан): широта 51.13 долгота 71.37 высота над уровнем моря 350 м.

В архиве по умолчанию представлена погода в Астане за последнюю неделю. Архивные данные за месяц целиком и за предыдущие месяцы, начиная с января 2011 года, Вы можете получить, выбрав интересующий диапазон дат из раскрывающегося списка и нажав кнопку "Ввод!".

Внимание! Время в таблицах - всемирное. Для получения местного времени необходимо прибавить поправку, которая в Астане равна 6 ч.

Смотрите также архив погоды в соседних городах и на ближайших метеорологических станциях:

Погода в Астане 2 (город Астана, Казахстан) (4 км)
Погода в Арнасае (Акмолинская область, Казахстан) (51 км)
Погода в Шортанды (Акмолинская область, Казахстан) (65 км)
Погода в Аршалы (Акмолинская область, Казахстан) (73 км)
Погода в Новомарковке (Акмолинская область, Казахстан) (92 км)
Погода в Киевке (Карагандинская область, Казахстан) (99 км)
Погода в Акколе (Акмолинская область, Казахстан) (101 км)
Погода в Осакаровке (Карагандинская область, Казахстан) (105 км)
Погода в Кургальджин (Акмолинская область, Казахстан) (114 км)
Погода в Жалтыре (Акмолинская область, Казахстан) (122 км)

Пояснения к столбцам:

Ветер - указаны скорость ветра в м/с - средняя за 10 мин, порывы в срок и между сроками (в фигурных скобках) и направление, откуда дует ветер: С - северный, СВ - северо-восточный, В - восточный, ЮВ - юго-восточный, Ю - южный, ЮЗ - юго-западный, З - западный, СЗ - северо-западный.
Видимость - горизонтальная дальность видимости в метрах или километрах. При видимости от 1 до 10 км при отсутствии осадков обычно наблюдается дымка, при ухудшении видимости до 1 км и менее - туман. В сухую погоду видимость может ухудшаться дымом, пылью или мглою.
Явления - указаны атмосферные явления, наблюдавшиеся в срок или в последний час перед сроком; фигурными скобками обозначены явления, наблюдавшиеся между сроками (за 1-3 часа до срока); квадратными скобками обозначены град или гололедные отложения с указанием их диаметра в мм.
Облачность - указаны через наклонную черту общая и нижняя облачность в баллах и высота нижней границы облаков в метрах; квадратными скобками обозначены формы облаков: Ci - перистые, Cs - перисто-слоистые, Cc - перисто-кучевые, Ac - высококучевые, As - высокослоистые, Sc - слоисто-кучевые, Ns - слоисто-дождевые, Cu - кучевые, Cb - кучево-дождевые. Подробнее классификацию облаков см. в Атласе облаков (PDF).
T - Температура воздуха - температура, измеренная на высоте 2 м над землей.
Td - Температура точки росы - температура, при понижении до которой содержащийся в воздухе водяной пар достигнет насыщения.
f - Относительная влажность воздуха - влажноcть воздуха, измеренная на высоте 2 м над землей.
Te - Эффективная температура - температура, которую ощущает одетый по сезону человек в тени. Характеристика душности погоды. При расчете учитывается влияние влажности воздуха и скорости ветра на теплоощущения человека.
Tes - Эффективная температура на солнце - температура, которую ощущает человек, с поправкой на солнечный нагрев. Характеристика знойности погоды. Зависит от высоты солнца над горизонтом, облачности и скорости ветра. Ночью, в пасмурную погоду, а также при ветре 12 м/с и более поправка равна нулю.
P - Атмосферное давление - приведенное к уровню моря атмосферное давление.
Po - Атмосферное давление - измеренное на уровне метеостанции атмосферное давление.
Tmin - Минимальная температура - минимум температуры воздуха на высоте 2 м над землей.
Tmax - Максимальная температура - максимум температуры воздуха на высоте 2 м над землей.
R - Количество осадков - Количество выпавших осадков, мм. При наведении курсора мыши на число - период времени, за который выпало указанное количество осадков.
S - Снежный покров - Высота снежного покрова, см. При наведении курсора мыши на число - состояние снежного покрова и степень покрытия местности в баллах.